Find Yaogan Weixing 25 fu xing er

NORAD ID: 40340 Int'l Des: 2014-080 Owner: ZZB Country: CN Constellation: yaogan operational
LEO

实时位置

正在加载3D地球...

关于 Yaogan Weixing 25 fu xing er

正在加载描述...

即将过境

Passes for default location (London). Set your location on the main map for personalized predictions.

高度历史

Loading altitude history...

两行轨道根数

1 40340U 14080C 26136.32343883 -.00000163 00000-0 -81978-4 0 9995
2 40340 63.3893 33.3825 0364150 9.4706 351.2947 13.45345768561463
Epoch: May 16, 2026 • Age: 7 hours

当前状态

高度 1088.8 km
速度 7.32 km/s
星下点 -61.03°S, 123.83°W
发射日期 Dec 10, 2014
运行时间 11.4 years
类型 military

技术详情

分类 Payload
质量 500.00 kg
干质量 500.00 kg
总质量 500.00 kg
长度 0.50 m
直径 0.50 m
跨度 1.00 m
形状 Box + 2 Pan
制造商 CAST
阶段状态 In Orbit
所有者/国家 ZZB/CN

Most Searched